This is the latest recevied weather packets stored in our database for station/object KL4TQ. If no packets are shown the sender has not sent any weather packets the latest 10 day(s).
| Time | Temp. | Humidity | Pressure | Rain* | Wind** | Luminosity | Snow |
|---|---|---|---|---|---|---|---|
| 1777973768 | 6.67° C | 76% | 857 hPa | 0 mm | - | 0 W/m² | - |
| 1777973469 | 6.67° C | 76% | 857 hPa | 0 mm | - | 0 W/m² | - |
| 1777973170 | 6.67° C | 76% | 857 hPa | 0 mm | - | 0 W/m² | - |
| 1777972869 | 6.67° C | 76% | 857 hPa | 0 mm | - | 0 W/m² | - |
| 1777972568 | 6.67° C | 77% | 857 hPa | 0 mm | - | 0 W/m² | - |
| 1777972270 | 6.67° C | 77% | 857 hPa | 0 mm | - | 0 W/m² | - |
| 1777971970 | 6.67° C | 77% | 857 hPa | 0 mm | - | 0 W/m² | - |
| 1777971670 | 6.67° C | 77% | 857 hPa | 0 mm | - | 0 W/m² | - |
| 1777971368 | 6.67° C | 77% | 857 hPa | 0 mm | - | 0 W/m² | - |
| 1777971068 | 6.67° C | 78% | 857 hPa | 0 mm | - | 0 W/m² | - |
| 1777970769 | 6.67° C | 77% | 857 hPa | 0 mm | - | 0 W/m² | - |
| 1777970469 | 6.67° C | 77% | 857 hPa | 0 mm | - | 0 W/m² | - |
| 1777970171 | 6.67° C | 78% | 857 hPa | 0 mm | - | 0 W/m² | - |
| 1777969868 | 6.67° C | 79% | 857 hPa | 0 mm | - | 0 W/m² | - |
| 1777969568 | 6.67° C | 79% | 857 hPa | 0.25 mm | - | 0 W/m² | - |
| 1777969269 | 6.67° C | 79% | 857 hPa | 0 mm | - | 0 W/m² | - |
| 1777968968 | 6.67° C | 79% | 857 hPa | 1.78 mm | - | 0 W/m² | - |
| 1777968669 | 6.67° C | 78% | 857 hPa | 0.25 mm | - | 0 W/m² | - |
| 1777968369 | 7.22° C | 79% | 857 hPa | 0.25 mm | - | 0 W/m² | - |
| 1777968068 | 7.22° C | 78% | 857 hPa | 2.03 mm | - | 0 W/m² | - |
| 1777967769 | 7.22° C | 77% | 857 hPa | 1.52 mm | - | 0 W/m² | - |
| 1777967468 | 7.22° C | 77% | 857 hPa | 1.02 mm | - | 0 W/m² | - |
| 1777967168 | 7.22° C | 79% | 857 hPa | 0.51 mm | - | 0 W/m² | - |
| 1777966869 | 7.78° C | 77% | 857 hPa | 8.64 mm | - | 0 W/m² | - |
| 1777966569 | 7.78° C | 73% | 857 hPa | 2.03 mm | - | 0 W/m² | - |
* Rain latest hour (hover to see other rain measurements)
** Current wind speed in m/s (hover to see current wind gust speed)